FW4399 Weather Reports


time (UTC)temp
C
wind
direction
speed
KPH
gust
KPH
rain 1hr
cm
rain 24hr
cm
rain mn
cm
humidity
%
barometer
mb
20260510183035 8 36 9.7 0.0 0.00 0.00 0.00 63 1011.1
20260510181534 9 51 9.7 0.0 0.00 0.00 0.00 60 1011.3
20260510180038 9 25 11.3 0.0 0.00 0.00 0.00 59 1011.4
20260510174533 10 39 11.3 0.0 0.00 0.00 0.00 57 1011.6
20260510173032 10 53 14.5 0.0 0.00 0.00 0.00 56 1011.6
20260510171531 11 46 11.3 0.0 0.00 0.00 0.00 55 1011.8
20260510170030 12 56 14.5 0.0 0.00 0.00 0.00 52 1012.1
20260510164530 11 52 16.1 0.0 0.00 0.00 0.00 54 1012.2
20260510163029 12 86 17.7 0.0 0.00 0.00 0.00 54 1012.4
20260510161528 11 45 14.5 0.0 0.00 0.00 0.00 54 1012.6
20260510160028 13 54 17.7 0.0 0.00 0.00 0.00 52 1012.9
20260510154527 13 40 17.7 0.0 0.00 0.00 0.00 54 1013.0
20260510153028 13 38 17.7 0.0 0.00 0.00 0.00 51 1013.1
20260510151526 14 56 16.1 0.0 0.00 0.00 0.00 50 1013.1
20260510150024 14 27 17.7 0.0 0.00 0.00 0.00 54 1013.3
20260510144533 13 28 14.5 0.0 0.00 0.00 0.00 54 1013.4
20260510143030 13 40 17.7 0.0 0.00 0.00 0.00 53 1013.5
20260510141532 13 62 17.7 0.0 0.00 0.00 0.00 55 1013.6
20260510140027 13 39 17.7 0.0 0.00 0.00 0.00 55 1013.6
20260510134520 13 61 16.1 0.0 0.00 0.00 0.00 51 1013.7
20260510133030 13 48 19.3 0.0 0.00 0.00 0.00 55 1013.9
20260510131517 13 57 19.3 0.0 0.00 0.00 0.00 56 1014.0
20260510130017 13 37 16.1 0.0 0.00 0.00 0.00 55 1014.1
20260510124518 13 51 16.1 0.0 0.00 0.00 0.00 54 1014.3
20260510123016 14 24 16.1 0.0 0.00 0.00 0.00 54 1014.4
20260510121513 14 28 19.3 0.0 0.00 0.00 0.00 55 1014.6
20260510120012 14 53 19.3 0.0 0.00 0.00 0.00 55 1014.7
20260510114510 12 45 17.7 0.0 0.00 0.00 0.00 59 1014.8
20260510113012 13 73 19.3 0.0 0.00 0.00 0.00 60 1015.1
20260510111505 11 12 16.1 0.0 0.00 0.00 0.00 63 1015.1
20260510110005 11 46 16.1 0.0 0.00 0.00 0.00 63 1015.2
20260510104506 11 31 17.7 0.0 0.00 0.00 0.00 63 1015.2
20260510103003 11 44 14.5 0.0 0.00 0.00 0.00 63 1015.2
20260510101503 12 45 17.7 0.0 0.00 0.00 0.00 61 1015.3
20260510100059 11 41 17.7 0.0 0.00 0.00 0.00 66 1015.3
20260510094557 11 53 16.1 0.0 0.00 0.00 0.00 67 1015.6
20260510093106 10 17 14.5 0.0 0.00 0.00 0.00 68 1015.7
20260510091556 10 2 16.1 0.0 0.00 0.00 0.00 68 1015.7
20260510090052 10 14 16.1 0.0 0.00 0.00 0.00 68 1015.7
20260510084553 10 19 16.1 0.0 0.00 0.00 0.00 70 1015.7
20260510083052 10 1 12.9 0.0 0.00 0.00 0.00 70 1015.7
20260510081609 10 44 14.5 0.0 0.00 0.00 0.00 70 1015.6
20260510080048 10 13 16.1 0.0 0.00 0.00 0.00 71 1015.5
20260510074541 10 15 16.1 0.0 0.00 0.00 0.00 74 1015.4
20260510073051 10 1 14.5 0.0 0.00 0.00 0.00 76 1015.3
20260510071536 9 17 14.5 0.0 0.00 0.00 0.00 76 1015.2
20260510070037 9 0 14.5 0.0 0.00 0.00 0.00 76 1015.2
20260510064547 9 8 16.1 0.0 0.00 0.00 0.00 76 1015.2
20260510063040 9 8 14.5 0.0 0.00 0.00 0.00 75 1015.2
20260510061534 8 13 16.1 0.0 0.00 0.00 0.00 76 1015.0
20260510060040 8 354 16.1 0.0 0.00 0.00 0.00 77 1015.0
20260510054527 8 32 14.5 0.0 0.00 0.00 0.00 78 1014.9
20260510053036 8 3 16.1 0.0 0.00 0.00 0.00 79 1014.7
20260510051523 8 30 19.3 0.0 0.00 0.00 0.00 80 1014.7
20260510050017 8 358 16.1 0.0 0.00 0.00 0.00 81 1014.7
20260510044533 8 19 16.1 0.0 0.00 0.00 0.00 81 1014.8
20260510043011 8 359 17.7 0.0 0.00 0.00 0.00 82 1014.7
20260510041509 8 1 16.1 0.0 0.00 0.00 0.00 82 1014.8
20260510040005 8 13 17.7 0.0 0.00 0.00 0.00 82 1014.9
20260510034503 8 354 16.1 0.0 0.00 0.00 0.00 82 1015.1
20260510033112 9 4 14.5 0.0 0.00 0.00 0.00 83 1015.2
20260510031555 9 13 14.5 0.0 0.00 0.00 0.00 84 1015.2
20260510030110 9 10 11.3 0.0 0.00 0.00 0.00 85 1015.2
20260510024551 9 342 12.9 0.0 0.00 0.00 0.00 85 1015.3
20260510023048 9 0 9.7 0.0 0.00 0.00 0.00 85 1015.3
20260510021548 9 22 11.3 0.0 0.00 0.00 0.00 85 1015.2
20260510020046 9 359 9.7 0.0 0.00 0.00 0.00 85 1015.2
20260510014545 9 349 6.4 0.0 0.00 0.00 0.00 86 1015.3
20260510013044 9 30 9.7 0.0 0.00 0.00 0.00 85 1015.2
20260510011544 9 34 9.7 0.0 0.00 0.00 0.00 85 1015.2
20260510010042 9 352 9.7 0.0 0.00 0.00 0.00 86 1015.2
20260510004542 9 29 9.7 0.0 0.00 0.00 0.00 87 1015.3
20260510003049 9 6 9.7 0.0 0.00 0.00 0.00 86 1015.2
20260510001539 9 2 11.3 0.0 0.00 0.00 0.00 86 1015.6
20260510000044 9 1 8.0 0.0 0.00 0.00 0.00 86 1015.7
20260509234550 9 22 8.0 0.0 0.00 0.00 0.00 86 1015.7
20260509233033 9 345 11.3 0.0 0.00 0.00 0.00 87 1015.7
20260509231532 9 359 9.7 0.0 0.00 0.00 0.00 87 1015.6
20260509230026 9 353 6.4 0.0 0.00 0.00 0.00 87 1015.6
20260509224526 8 0 8.0 0.0 0.00 0.00 0.00 87 1015.4
20260509223026 8 25 9.7 0.0 0.00 0.00 0.00 87 1015.2
20260509221531 8 5 8.0 0.0 0.00 0.00 0.00 88 1015.2
20260509220025 8 359 6.4 0.0 0.00 0.00 0.00 87 1015.2
20260509214524 8 359 6.4 0.0 0.00 0.00 0.00 86 1015.2
20260509213006 9 16 9.7 0.0 0.00 0.00 0.00 85 1015.2
20260509211646 9 6 8.0 0.0 0.00 0.00 0.00 84 1015.2
20260509210134 9 352 9.7 0.0 0.00 0.00 0.00 82 1015.2
20260509204632 10 351 9.7 0.0 0.00 0.00 0.00 81 1015.2
20260509203014 10 16 11.3 0.0 0.00 0.00 0.00 78 1015.1
20260509201555 10 359 12.9 0.0 0.00 0.00 0.00 76 1015.1
20260509200030 11 35 14.5 0.0 0.00 0.00 0.00 74 1014.9
20260509194633 11 22 9.7 0.0 0.00 0.00 0.00 68 1014.7
20260509193035 12 21 9.7 0.0 0.00 0.00 0.00 66 1014.6
20260509191528 12 20 11.3 0.0 0.00 0.00 0.00 66 1014.4
20260509190029 12 29 12.9 0.0 0.00 0.00 0.00 65 1014.2
20260509184604 12 37 14.5 0.0 0.00 0.00 0.00 63 1014.2